FW4773 Weather Reports


time (UTC)temp
F
wind
direction
speed
knots
gust
knots
rain 1hr
in
rain 24hr
in
rain mn
in
humidity
%
barometer
mb
20260507114602 54 321 0.0 2.6 0.00 0.26 0.16 82 1015.2
20260507113056 54 357 0.0 0.0 0.00 0.26 0.16 83 1015.1
20260507111550 0 0.0 0.0 0.00 0.26 0.16 1015.0
20260507110044 0 0.0 0.0 0.00 0.26 0.16 1014.9
20260507104539 0 0.0 0.0 0.00 0.26 0.16 1014.6
20260507103033 0 351 0.0 3.5 0.00 0.26 0.16 1014.6
20260507101539 53 342 0.0 2.6 0.00 0.26 0.16 86 1014.3
20260507100044 53 21 0.0 1.7 0.00 0.26 0.16 88 1014.4
20260507094527 53 4 0.0 1.7 0.00 0.26 0.16 88 1014.5
20260507093025 53 5 0.0 0.0 0.00 0.26 0.16 88 1014.1
20260507091522 54 328 0.0 1.7 0.00 0.26 0.16 88 1014.2
20260507090020 54 46 0.9 4.3 0.00 0.26 0.16 87 1014.1
20260507084516 54 32 1.7 3.5 0.00 0.26 0.16 87 1014.1
20260507083013 55 298 0.0 2.6 0.00 0.26 0.16 88 1014.1
20260507081511 55 318 0.0 4.3 0.00 0.26 0.16 87 1013.5
20260507080006 55 344 0.9 6.1 0.00 0.26 0.16 87 1013.5
20260507074505 55 343 0.9 7.0 0.00 0.26 0.16 88 1013.1
20260507073104 55 49 0.9 7.0 0.00 0.26 0.16 90 1013.1
20260507071557 56 309 0.0 10.4 0.00 0.26 0.16 91 1012.6
20260507070055 56 316 0.0 4.3 0.00 0.26 0.16 91 1012.9
20260507064552 56 35 1.7 4.3 0.00 0.26 0.16 91 1012.6
20260507063051 56 319 2.6 8.7 0.02 0.26 0.16 91 1012.2
20260507061645 57 315 1.7 7.0 0.07 0.26 0.16 90 1012.3
20260507060041 57 354 0.9 7.0 0.13 0.26 0.16 90 1012.6
20260507054541 58 319 0.0 3.5 0.15 0.26 0.16 90 1012.7
20260507053032 59 295 0.9 5.2 0.14 0.24 0.14 90 1012.5
20260507051528 60 229 0.0 1.7 0.09 0.19 0.09 89 1012.8
20260507050033 61 104 0.0 1.7 0.02 0.12 0.02 85 1012.2
20260507044523 63 307 1.7 5.2 0.01 0.11 0.01 81 1012.8
20260507043013 64 224 0.0 1.7 0.00 0.10 0.00 79 1012.5
20260507041523 64 21 0.9 2.6 0.00 0.10 0.00 79 1012.3
20260507040006 64 8 1.7 8.7 0.00 0.10 0.10 79 1012.0
20260507034504 65 46 1.7 12.2 0.00 0.10 0.10 83 1012.2
20260507033002 65 17 0.0 1.7 0.00 0.10 0.10 87 1011.9
20260507031600 65 15 0.0 1.7 0.00 0.10 0.10 87 1011.7
20260507030100 65 340 0.0 0.9 0.00 0.10 0.10 88 1011.7
20260507024616 65 2 0.9 3.5 0.00 0.10 0.10 89 1011.5
20260507023054 65 207 0.0 0.0 0.00 0.10 0.10 89 1011.4
20260507021553 65 207 0.0 0.0 0.00 0.10 0.10 89 1011.2
20260507020106 65 207 0.0 0.9 0.00 0.10 0.10 88 1011.3
20260507014602 65 207 0.0 0.9 0.00 0.10 0.10 88 1011.2
20260507013050 65 207 0.0 0.9 0.00 0.10 0.10 88 1011.8
20260507011545 65 202 0.0 0.0 0.00 0.10 0.10 88 1011.9
20260507010146 65 202 0.0 0.0 0.00 0.10 0.10 88 1011.7
20260507004544 66 202 0.0 0.0 0.00 0.10 0.10 87 1011.3
20260507003040 66 202 0.0 0.0 0.00 0.10 0.10 85 1011.3
20260507001538 67 202 0.0 0.0 0.00 0.10 0.10 84 1011.3
20260507000036 67 202 0.0 0.0 0.00 0.10 0.10 82 1011.3
20260506234537 68 202 0.0 0.0 0.00 0.10 0.10 81 1011.1
20260506233032 68 202 0.0 0.9 0.00 0.10 0.10 80 1011.0
20260506231543 69 221 0.0 0.9 0.00 0.10 0.10 80 1010.6
20260506230034 69 201 0.0 1.7 0.00 0.10 0.10 79 1011.0
20260506224528 69 183 1.7 5.2 0.00 0.10 0.10 78 1010.5
20260506223040 69 205 1.7 7.8 0.00 0.10 0.10 78 1010.7
20260506221521 69 216 0.9 5.2 0.00 0.10 0.10 78 1010.7
20260506220024 69 232 1.7 6.1 0.00 0.10 0.10 77 1010.7
20260506214519 70 212 2.6 7.8 0.00 0.10 0.10 77 1010.8
20260506213016 70 197 2.6 7.8 0.00 0.10 0.10 76 1010.3
20260506211516 70 218 0.9 8.7 0.00 0.10 0.10 78 1010.4
20260506210016 70 190 4.3 6.1 0.00 0.10 0.10 77 1010.1
20260506204511 69 212 3.5 7.0 0.00 0.10 0.10 77 1010.2
20260506203009 69 222 2.6 7.0 0.00 0.10 0.10 78 1010.2
20260506201507 69 269 4.3 7.8 0.00 0.10 0.10 78 1010.4
20260506200006 69 215 1.7 5.2 0.00 0.10 0.10 78 1010.3
20260506194501 69 205 3.5 12.2 0.00 0.10 0.10 78 1010.2
20260506193101 69 249 2.6 7.8 0.00 0.10 0.10 79 1010.5
20260506191556 68 231 3.5 8.7 0.00 0.10 0.10 79 1010.6
20260506190054 68 224 4.3 8.7 0.00 0.10 0.10 78 1010.7
20260506184601 68 200 4.3 11.3 0.00 0.10 0.10 78 1010.8
20260506183058 68 197 3.5 10.4 0.00 0.10 0.10 78 1011.0
20260506181542 68 197 4.3 8.7 0.00 0.10 0.10 79 1011.2
20260506180041 67 204 5.2 9.6 0.00 0.10 0.10 80 1011.3
20260506174541 66 217 3.5 7.8 0.00 0.10 0.10 81 1011.4
20260506173034 65 237 3.5 12.2 0.00 0.10 0.10 82 1011.4
20260506171533 65 171 5.2 14.8 0.00 0.10 0.10 82 1011.6
20260506170033 65 244 6.1 10.4 0.00 0.10 0.10 84 1011.7
20260506164528 64 213 4.3 9.6 0.00 0.10 0.10 85 1011.8
20260506163024 64 184 4.3 9.6 0.01 0.10 0.10 86 1011.5
20260506161520 63 220 3.5 11.3 0.02 0.10 0.10 88 1011.5
20260506160019 62 199 2.6 8.7 0.02 0.10 0.10 89 1012.0
20260506154515 62 221 3.5 9.6 0.04 0.09 0.09 89 1011.9
20260506153012 62 217 3.5 7.0 0.08 0.09 0.09 88 1012.2
20260506151511 61 238 2.6 6.1 0.08 0.08 0.08 89 1013.0
20260506150007 61 245 2.6 5.2 0.08 0.08 0.08 88 1012.9
20260506144504 62 245 1.7 5.2 0.05 0.05 0.05 87 1013.1
20260506143109 62 212 2.6 7.0 0.01 0.01 0.01 84 1013.0
20260506141555 62 218 2.6 7.0 0.00 0.00 0.00 83 1013.1
20260506140051 64 224 4.3 7.8 0.00 0.00 0.00 79 1013.3
20260506134547 65 193 2.6 6.1 0.00 0.00 0.00 76 1013.2
20260506133044 65 210 3.5 7.0 0.00 0.00 0.00 75 1013.1
20260506131542 65 215 3.5 8.7 0.00 0.00 0.00 75 1013.0
20260506130041 65 219 4.3 8.7 0.00 0.00 0.00 75 1012.8
20260506124538 65 198 4.3 10.4 0.00 0.00 0.00 75 1012.8
20260506123037 66 211 1.7 7.0 0.00 0.00 0.00 75 1013.0
20260506121534 66 222 4.3 10.4 0.00 0.00 0.00 74 1013.0